CAPE
0 0 0 0 0 0 0 0 0 0 0 0 0 0 0 0 0 0 0 0 0 0 31 143 444 434 400 110 1170 1977 2300 1640 1244 1650 1325 1196 993 1161 1468 1206 1368 896 577 490
0 0 0 0 0 0 0 0 0 0 0 0 0 0 0 0 0 0 0 0 0 0 54 398 621 723 644 587 583 1930 2385 2706 2228 1856 2110 1995 1906 1645 1470 1600 1308 1274 719 504
0 0 0 0 0 0 0 0 0 0 0 0 0 0 0 0 0 0 0 0 10 8 53 473 655 799 1449 1922 1890 1412 1053 2910 2879 2936 2461 2335 2270 2247 2133 1910 1687 1220 995 741
0 0 0 0 0 0 0 0 0 0 0 0 0 0 0 0 0 0 0 7 35 293 622 587 708 1107 1384 1510 1557 1532 1501 1802 3083 2666 2758 2682 2570 2243 2241 2200 1803 1427 1190 908
0 0 0 0 0 0 0 0 0 0 0 0 0 0 0 0 0 0 2 6 207 617 428 214 181 455 729 845 759 965 1173 1421 1939 2416 2619 2506 2393 2562 2413 2290 2069 1373 1196 881
0 0 0 0 0 0 0 6 4 0 0 0 0 0 0 0 0 0 37 247 476 456 236 133 39 0 67 93 118 103 192 270 991 1304 1535 1736 1754 1929 2057 1939 1944 1713 1242 1134
0 0 0 0 0 0 0 10 13 2 0 0 0 1 7 59 12 8 72 350 261 180 128 47 14 0 0 17 0 0 7 17 96 199 677 1023 930 1009 1428 1437 1477 1653 1896 1472
0 0 0 0 0 0 1 0 9 4 2 0 0 53 301 73 0 5 0 71 10 0 5 10 1 0 0 0 0 0 0 0 0 0 22 391 329 387 621 686 976 1363 1421 1659
0 0 0 0 1 12 7 0 0 0 6 0 0 4 344 79 4 0 0 0 0 0 0 0 0 0 0 7 15 2 0 0 0 0 0 0 211 230 129 370 513 827 1094 1338
0 0 0 0 0 23 1 0 0 0 0 0 0 159 45 42 0 0 0 0 0 0 0 0 0 5 0 0 0 0 0 0 2 12 0 0 0 0 226 248 240 393 348 705
0 0 0 0 3 9 31 8 8 0 0 0 10 61 131 14 0 0 0 0 0 0 0 0 0 0 0 0 0 0 0 0 0 0 0 0 0 0 0 0 169 527 351 382
0 0 0 0 0 56 80 0 0 0 0 2 60 98 137 4 0 0 0 3 0 4 0 0 0 0 0 0 0 0 0 0 0 0 0 0 0 0 0 0 0 24 570 321
0 0 0 0 0 0 0 0 0 0 0 0 7 47 4 0 1 2 0 0 0 0 0 0 0 0 0 0 0 0 0 0 0 0 0 0 0 0 0 0 0 0 0 427
0 0 0 0 0 0 0 2 0 0 0 0 0 0 17 0 0 1 0 1 1 0 2 0 0 0 0 0 0 0 0 0 0 0 0 0 0 0 0 0 0 0 0 0
0 0 0 0 0 0 8 17 19 2 0 0 0 0 24 8 0 0 0 1 1 4 0 0 0 0 0 0 0 0 0 0 0 0 0 0 0 0 0 0 0 0 0 0
11 0 0 0 0 2 1 1 28 0 0 0 0 0 7 8 2 0 0 0 4 0 0 0 0 0 0 0 0 0 0 0 0 0 0 0 0 0 0 0 5 0 0 0
0 0 0 0 0 0 0 3 0 0 0 0 0 0 0 0 0 0 0 0 0 0 0 0 0 0 0 0 0 0 0 0 0 0 0 0 0 0 0 0 5 37 2 0
0 0 0 0 0 0 6 0 0 0 0 0 0 0 0 0 0 0 0 0 0 0 0 0 0 0 0 0 0 0 0 0 0 0 0 0 0 0 0 0 0 5 0 14
0 0 0 0 0 0 0 0 0 0 0 5 0 2 5 1 0 0 0 0 0 0 0 0 0 0 0 0 0 0 0 0 0 0 0 0 0 0 0 0 0 0 0 5
0 0 0 0 0 0 1 0 0 0 0 10 4 0 0 0 0 0 0 0 0 0 0 0 0 0 0 0 0 0 0 0 0 0 0 0 0 0 0 0 0 0 0 0
0 0 0 0 0 0 0 4 5 0 5 0 0 0 0 0 0 0 0 0 0 0 0 0 0 0 0 0 0 0 0 0 0 0 0 0 0 0 0 0 0 0 0 0
0 1 0 0 1 0 31 20 8 25 13 0 0 0 0 0 0 0 0 0 0 0 0 0 0 0 0 0 0 1 1 0 0 0 0 0 0 0 0 0 0 0 0 0
7 0 3 1 1 1 2 31 84 64 5 0 0 0 0 0 0 0 0 0 0 0 0 2 0 0 1 3 4 3 3 6 8 5 3 0 0 0 0 0 0 0 0 0
0 13 16 1 1 0 0 4 0 8 0 0 0 0 0 0 0 0 0 0 0 5 1 6 6 1 11 4 9 17 17 7 14 5 4 8 0 0 0 0 0 0 0 0
0 5 1 3 0 0 7 0 1 0 0 0 0 0 0 0 0 0 0 0 3 5 7 8 5 3 6 7 14 9 9 13 9 5 6 0 0 0 0 0 0 0 0 0
0 0 0 7 25 28 26 16 3 0 0 0 0 0 0 0 0 1 0 0 0 4 2 8 13 8 21 16 23 15 22 3 0 1 0 0 0 0 0 0 1 1 0 0
CIN
0 0 0 0 0 0 0 0 0 0 0 0 0 0 0 0 0 0 0 0 0 0 -218 -213 -214 -275 -230 -233 -137 -51 -33 -85 -114 -122 -128 -124 -116 -112 -77 -75 -58 -140 -194 -214
0 0 0 0 0 0 0 0 0 0 0 0 0 0 0 0 0 0 0 0 0 0 -168 -139 -142 -137 -136 -143 -137 -64 -25 -41 -82 -89 -91 -85 -69 -72 -70 -48 -68 -89 -152 -204
0 0 0 0 0 0 0 0 0 0 0 0 0 0 0 0 0 0 0 0 -128 -101 -140 -115 -97 -101 -100 -100 -113 -149 -126 -21 -21 -32 -39 -25 -19 -28 -25 -36 -69 -101 -139 -182
0 0 0 0 0 0 0 0 0 0 0 0 0 0 0 0 0 0 0 -92 -116 -118 -63 -40 -44 -42 -76 -109 -147 -152 -156 -117 -12 -10 -9 -8 -6 -13 -19 -16 -64 -85 -106 -168
0 0 0 0 0 0 0 0 0 0 0 0 0 0 0 0 0 0 -65 -86 -149 -153 -122 -91 -104 -114 -92 -148 -208 -153 -162 -142 -80 -39 -20 -14 -11 -13 -11 -13 -19 -99 -165 -210
0 0 0 0 0 0 0 -7 -10 0 0 0 0 0 0 0 0 0 -71 -119 -147 -183 -179 -152 -170 -12 -200 -353 -296 -235 -264 -269 -147 -113 -88 -55 -48 -38 -25 -33 -32 -69 -134 -148
0 0 0 0 0 0 0 -14 -23 -3 0 0 0 -2 -45 -201 -433 -85 -88 -116 -135 -168 -156 -171 -204 0 0 -285 0 0 -115 -312 -243 -213 -161 -124 -144 -134 -76 -66 -67 -33 -31 -90
0 0 0 0 -56 0 -14 0 -63 -69 -42 -8 0 -25 -50 -305 0 -524 -66 -204 -107 0 -158 -121 -61 0 0 0 0 0 0 0 0 0 -95 -171 -190 -204 -175 -168 -120 -71 -47 -24
0 0 0 0 -9 -79 -81 0 0 0 -41 0 0 -49 -65 -205 -341 0 0 0 0 0 0 0 0 0 0 -13 -20 -10 0 0 0 0 0 0 -128 -155 -203 -163 -169 -125 -84 -70
0 0 0 0 0 -66 -19 0 0 0 0 0 0 -13 -46 -91 0 0 0 0 0 0 0 0 0 -13 0 0 0 0 0 0 -93 -69 0 0 0 0 -123 -135 -165 -138 -172 -113
0 0 0 0 -7 -33 -88 -70 -23 0 0 0 -90 -28 -93 -128 0 0 0 0 0 0 0 0 0 0 0 0 0 0 0 0 0 0 0 0 0 0 0 0 -119 -71 -124 -149
0 0 0 0 0 -39 -38 0 0 -1 0 -46 -19 -25 -17 -110 0 0 0 -13 0 -30 0 0 0 0 0 0 0 0 0 0 0 0 0 0 0 0 0 0 0 -29 -33 -108
0 0 0 0 0 0 0 0 0 0 0 0 -15 -42 -100 0 -9 -50 0 -10 0 0 0 0 0 0 0 0 0 0 0 0 0 0 0 0 0 0 0 0 0 0 0 -38
0 0 0 0 0 0 0 -44 0 0 0 -4 0 0 -41 0 0 -31 -22 -58 -15 -9 -17 -2 0 0 0 0 0 0 0 0 0 0 0 0 0 0 0 0 0 0 0 0
0 0 0 0 0 0 -4 -41 -29 -25 0 0 0 0 -14 -51 0 0 0 -18 -10 0 0 0 0 0 0 0 0 0 0 0 0 0 0 0 0 0 0 0 0 0 0 0
-6 0 0 0 0 -4 -1 -16 -10 -1 0 0 0 0 -35 -23 -29 0 0 -1 -7 0 0 0 0 0 0 0 0 0 0 0 0 0 0 0 0 0 0 0 -19 -1 0 0
0 0 0 0 -3 -3 0 -21 0 0 0 0 0 0 0 0 0 0 0 0 0 0 0 0 0 0 0 0 0 0 0 0 0 0 0 0 0 0 0 0 -18 -18 -13 0
0 0 0 0 0 0 -30 0 0 0 0 0 0 -13 0 0 0 0 0 0 0 0 0 0 0 0 0 0 0 0 0 0 0 0 0 0 0 0 0 0 0 -44 0 -31
0 0 0 -1 0 0 0 0 0 0 0 -57 0 -65 -73 -52 0 0 0 0 0 0 0 0 0 0 0 0 0 0 0 0 0 0 0 0 0 0 0 0 0 0 0 -11
0 0 0 0 0 0 -15 -12 0 0 0 -98 -100 0 0 0 0 0 0 0 0 0 0 0 0 0 0 0 0 0 0 0 0 0 0 0 0 0 0 0 0 0 0 0
0 -4 0 0 0 0 0 -4 -7 0 -18 0 0 0 0 0 0 0 0 0 0 0 0 0 0 0 0 0 0 0 0 0 0 0 0 0 0 0 0 0 0 0 0 -15
-1 -6 0 0 -6 -1 -11 -15 -23 -29 -69 0 0 0 0 0 0 0 0 0 0 0 0 0 0 0 0 0 0 -7 -13 -14 0 0 0 0 0 0 0 0 0 0 0 0
-6 -8 -13 -14 -8 -16 -13 -17 -11 -11 -10 0 0 0 0 0 0 0 0 0 0 0 0 -21 -6 -23 -21 -9 -15 -8 -12 -17 -16 -7 -7 0 0 0 0 0 0 0 0 0
-2 -13 -6 -5 -13 0 -6 -35 0 -26 -1 0 0 0 0 0 0 0 0 0 -2 -8 -10 -13 -22 -20 -21 -13 -10 -10 -12 -19 -16 -15 -17 -21 0 0 0 0 0 0 0 0
0 -5 -5 -14 0 0 -11 0 -5 0 0 0 0 0 0 0 0 0 0 0 -37 -21 -13 -13 -15 -13 -19 -12 -17 -15 -25 -18 -5 -13 -14 0 0 0 0 0 0 0 0 0
0 0 0 -5 -8 -6 -12 -8 -3 0 0 0 0 0 0 0 0 -13 0 0 -13 -22 -29 -21 -14 -12 -16 -22 -20 -30 -18 -9 0 -6 0 0 0 0 0 0 -7 -4 0 0
Wind_Speed
21 25 28 29 28 29 33 40 43 40 38 38 21 18 26 27 21 8 10 11 2 2 5 8 8 9 13 14 14 11 8 6 7 11 11 12 14 18 18 17 16 6 4 3
20 27 25 27 31 34 36 39 42 41 37 32 27 25 22 25 24 13 11 8 4 1 2 5 7 11 13 15 16 13 13 10 9 11 13 14 14 17 19 19 14 13 6 4
1 13 27 27 28 32 34 38 39 39 37 34 32 33 24 23 31 27 13 8 4 3 3 5 7 10 10 14 17 17 15 15 10 10 11 14 18 20 18 19 15 13 10 10
8 4 6 7 25 33 35 29 36 38 37 44 29 42 31 25 30 30 11 4 4 1 3 6 8 10 11 13 18 18 17 18 15 13 18 18 19 19 20 22 18 16 13 12
15 17 14 18 15 20 37 29 33 35 35 36 41 38 34 27 30 25 13 9 5 3 2 5 8 11 12 15 17 16 16 16 16 17 19 21 22 24 24 24 25 19 16 17
15 10 14 21 22 25 33 34 31 33 36 44 37 36 42 38 33 22 12 9 7 5 3 4 7 11 14 16 15 15 15 16 16 17 18 19 21 23 25 27 26 21 21 18
27 19 23 30 35 30 33 27 35 35 38 42 32 33 26 27 30 21 13 9 6 4 4 5 7 11 14 16 13 15 15 16 16 17 19 20 21 23 26 26 27 26 22 23
29 28 28 31 31 26 28 23 27 34 36 36 30 29 24 18 16 11 5 5 3 1 3 4 6 9 10 11 12 13 14 15 16 18 19 20 21 23 24 26 27 28 28 28
29 25 31 30 35 24 28 35 30 31 20 32 34 28 21 17 13 12 8 8 12 8 6 10 4 5 8 10 11 13 15 16 16 17 19 21 22 23 25 26 27 28 30 31
29 32 26 30 30 27 28 30 36 24 24 29 28 24 30 25 21 17 12 13 17 18 11 11 6 6 10 13 16 18 20 19 19 19 20 21 22 23 24 26 27 29 30 31
31 28 28 29 21 23 29 26 26 31 26 26 32 26 28 31 24 24 20 14 10 17 8 11 11 14 15 18 20 21 24 23 24 24 23 24 25 25 26 27 28 28 29 31
26 25 26 21 30 27 19 25 23 26 29 31 25 23 18 19 20 21 25 27 17 20 18 19 17 17 19 20 23 24 26 27 28 28 28 29 29 29 29 29 30 30 29 28
24 24 27 22 18 22 25 29 29 32 34 30 28 24 17 18 19 18 18 19 25 26 23 23 23 20 21 23 25 26 28 30 31 33 32 33 34 33 33 30 30 31 31 30
18 20 18 16 20 30 30 31 29 31 35 30 30 28 22 20 18 18 15 12 13 20 21 18 17 20 23 26 27 29 32 33 34 34 34 34 34 36 35 31 30 31 31 31
17 19 19 16 28 36 30 29 26 30 34 33 29 25 21 18 19 18 15 13 16 15 14 16 20 22 24 26 29 32 33 34 33 34 36 35 36 35 34 34 30 29 29 29
19 20 20 19 30 33 35 33 23 24 30 33 31 23 13 14 13 12 13 15 18 13 16 20 24 26 26 29 31 34 32 32 32 33 34 34 35 35 36 35 32 28 28 28
16 17 18 17 26 33 29 26 25 23 25 25 26 19 19 16 11 12 13 14 16 19 22 25 27 26 26 29 32 33 34 33 34 34 33 34 34 35 35 35 35 29 30 30
10 12 11 13 22 14 19 23 20 22 23 27 28 19 15 10 10 13 16 17 21 23 25 27 27 26 28 31 35 36 34 34 35 35 35 34 35 36 35 34 34 36 29 28
1 6 12 12 9 17 29 20 21 19 19 23 18 11 10 8 11 17 19 20 21 25 26 28 28 30 33 34 35 33 33 35 37 36 36 36 36 37 37 37 35 34 33 31
1 2 5 8 11 12 20 23 21 23 20 20 16 16 16 18 18 18 19 21 23 26 28 32 33 34 34 34 32 36 36 34 34 34 33 33 34 36 37 38 38 36 36 36
13 6 2 3 7 15 12 18 23 21 17 15 16 16 17 17 18 22 24 26 25 29 33 32 35 33 32 34 35 38 35 33 35 35 35 34 33 35 37 37 38 39 39 38
13 11 5 3 8 11 20 17 19 13 13 16 17 17 18 22 24 27 29 32 33 34 33 34 33 32 35 36 36 36 35 34 34 33 32 33 32 34 35 36 36 37 38 40
16 10 9 11 8 15 20 20 16 16 13 15 17 20 23 25 27 29 31 34 33 33 34 31 32 33 34 35 34 35 36 35 34 32 31 33 32 34 33 33 35 35 34 36
15 13 11 14 17 27 20 19 19 15 15 15 19 22 24 26 28 31 31 32 33 32 34 32 32 34 33 33 32 34 34 34 31 33 32 31 33 33 32 32 33 33 33 35
13 11 11 13 15 19 18 16 10 14 16 20 22 24 27 29 31 31 32 33 32 32 33 32 32 33 33 34 35 32 34 31 31 31 30 31 30 32 33 34 32 34 33 34
12 11 15 16 19 15 10 9 18 16 18 21 25 27 29 31 33 32 33 33 33 33 33 33 32 34 34 35 33 34 29 26 27 27 27 30 32 34 34 35 36 33 33 31
Wind_Direction
306 296 293 292 290 288 287 282 281 284 286 303 281 269 282 288 299 292 287 296 289 338 340 345 348 344 321 319 309 290 274 243 257 276 279 283 278 282 288 291 301 281 260 249
316 299 302 298 293 288 286 282 281 284 285 297 295 284 287 281 285 293 283 286 213 228 348 346 348 343 340 317 311 302 290 287 280 274 278 283 287 286 282 287 292 303 257 267
313 323 309 301 295 293 290 283 285 284 287 289 289 286 284 282 278 286 297 263 211 238 290 317 334 341 344 339 326 313 305 296 288 286 282 286 287 284 286 285 283 282 283 286
335 303 294 270 305 297 288 296 286 288 281 274 288 279 287 283 284 272 271 205 173 245 340 337 329 332 341 337 331 318 310 303 293 291 287 286 284 286 289 289 283 277 277 277
335 330 326 318 307 306 292 295 290 289 286 279 273 278 281 286 285 272 240 237 220 202 245 321 339 345 351 350 334 325 324 321 313 302 296 288 289 288 290 288 287 284 279 282
331 331 323 315 309 304 301 300 290 283 281 272 275 276 277 282 289 294 221 207 203 213 253 302 330 342 343 349 343 329 329 326 324 318 314 306 298 296 293 291 297 290 285 284
330 327 342 344 323 317 307 294 286 280 272 269 279 279 288 301 297 285 208 205 203 214 252 283 313 327 339 337 346 341 334 329 331 328 320 314 310 304 297 297 295 298 292 287
336 330 341 333 333 318 307 305 292 276 269 271 280 275 274 314 322 321 329 269 206 307 6 323 325 342 352 346 346 353 353 345 336 331 328 325 321 314 307 303 297 295 296 294
337 331 331 332 328 324 304 280 293 291 281 277 272 274 281 293 319 326 324 328 320 307 318 344 357 350 356 344 338 343 351 352 350 346 340 331 324 319 314 308 304 300 297 295
339 331 338 330 327 320 301 289 267 290 274 275 277 272 261 273 273 282 311 309 313 315 314 315 11 23 9 350 337 344 347 337 340 340 337 334 331 330 323 317 309 305 301 298
343 337 335 338 339 325 290 290 284 270 276 285 276 278 274 272 276 278 283 284 313 302 328 317 348 0 356 343 342 337 332 329 325 329 329 327 325 323 322 321 319 314 308 302
350 340 335 335 316 311 291 296 292 283 277 272 279 282 291 282 283 281 271 269 266 270 292 301 342 339 339 333 332 328 331 331 326 325 319 317 317 316 315 314 314 316 313 312
356 354 342 345 340 327 312 302 285 277 265 271 277 282 294 299 292 288 286 283 270 282 295 294 298 325 331 329 327 325 322 325 323 319 315 312 311 311 309 310 312 311 310 309
8 357 349 335 325 309 304 298 278 281 278 288 287 288 290 295 287 283 298 306 304 300 300 309 331 331 327 325 327 321 317 323 321 320 318 315 311 308 308 306 310 310 309 308
2 350 349 340 317 293 297 297 297 286 280 284 294 299 290 287 289 290 294 311 311 305 320 327 334 339 333 328 328 327 325 322 322 319 316 314 314 313 310 310 307 309 309 308
359 348 350 341 318 300 291 291 292 287 289 289 291 297 309 308 315 308 301 299 304 326 333 334 334 331 329 328 326 323 324 323 321 319 317 314 312 312 311 308 308 304 306 308
338 347 348 342 328 308 304 298 296 299 300 302 291 305 308 314 317 321 328 333 328 326 327 328 329 333 335 331 328 324 323 322 321 320 317 314 312 309 309 309 309 305 302 301
345 350 349 340 335 332 318 312 316 305 312 303 291 308 320 325 330 330 331 325 322 324 326 327 328 331 332 328 324 320 320 319 316 314 314 315 315 310 306 307 308 308 305 301
350 10 4 1 350 330 301 314 306 309 317 331 338 331 348 2 340 323 328 327 325 324 325 324 326 324 322 323 323 323 322 321 316 312 310 309 309 308 306 304 303 305 304 302
92 77 14 6 0 354 318 309 315 306 301 324 338 335 328 321 310 317 332 330 324 322 323 320 321 320 320 322 324 320 318 320 319 320 318 318 311 307 306 303 300 302 300 297
10 19 322 329 343 334 324 321 312 304 310 328 329 329 331 326 323 315 320 321 325 323 321 322 319 320 322 320 318 316 317 318 318 317 315 318 316 314 307 304 302 298 297 298
2 4 0 345 340 330 322 325 312 324 329 331 330 329 319 315 313 315 317 316 318 320 322 321 320 321 319 318 318 316 317 319 319 318 317 317 318 315 312 308 306 302 298 294
353 11 2 355 359 338 317 315 323 323 332 329 327 323 317 316 317 319 320 319 321 322 320 321 320 319 320 318 319 316 316 318 318 317 317 316 315 314 314 311 309 308 306 302
356 3 360 343 330 306 311 305 327 341 339 340 334 326 324 321 321 320 321 321 319 322 320 322 320 318 319 322 321 319 319 319 318 315 315 315 313 313 314 314 313 312 310 306
338 349 346 340 331 329 316 319 325 333 332 330 330 326 324 325 323 324 323 323 324 325 324 324 323 321 321 320 321 322 322 322 321 318 318 317 317 315 313 313 314 313 313 312
326 330 335 331 325 324 334 330 314 325 330 328 323 322 325 325 324 325 322 324 324 323 323 323 323 322 321 318 321 321 326 329 329 328 324 319 315 314 314 313 311 314 314 316